Greeley, CO

9:53 AM MDT on August 21, 2017 (GMT -0600)
Greeley-Weld County

Weather History for KGXY - December, 2011

Change the Weather History Date:

Monday, December 5, 2011

  Actual Average Record
Temperature  
Mean Temperature 4 °F -  
Max Temperature 12 °F - 65 °F (1989)
Min Temperature -5 °F - -14 °F (2013)
Degree Days  
Heating Degree Days 62    
Month to date heating degree days  
Cooling Degree Days 0    
Month to date cooling degree days  
Moisture  
Dew Point -3 °F    
Average Humidity 73    
Maximum Humidity 92    
Minimum Humidity 62    
Precipitation  
Precipitation 0.00 in - 0.58 in (1972)
Sea Level Pressure  
Sea Level Pressure 30.34 in    
Wind  
Wind Speed 5 mph (SSE)    
Max Wind Speed 14 mph    
Max Gust Speed 18 mph    
Visibility 10 miles    
Events      
T = Trace of Precipitation, MM = Missing Value Source: NWS Daily Summary

Daily Weather History Graph

Daily Weather History Graph

Search for Another Location

Airport or City:

Trip Planner

Search our weather history database for the weather conditions in past years. The results will help you decide how hot, cold, wet, or windy it might be!

Date:

Astronomy

Dec. 05, 2011 Rise Set
Actual Time 7:06 AM MST 4:31 PM MST
Civil Twilight 6:35 AM MST 5:02 PM MST
Nautical Twilight 6:01 AM MST 5:36 PM MST
Astronomical Twilight 5:28 AM MST 6:09 PM MST
Moon 1:31 PM MST (12/5) 2:29 AM MST (12/5)
Length of Visible Light 10h 26m
Length of Day
9h 25m
Waxing Gibbous, 80% of the Moon is Illuminated
Dec 5
Waxing Gibbous
Dec 10
Full
Dec 17
Last Quarter
Dec 24
New
Dec 31
First Quarter

Hourly Weather History & Observations

Time (MST) Temp. Windchill Dew Point Humidity Pressure Visibility Wind Dir Wind Speed Gust Speed Precip Events Conditions
12:15 AM 12.2 °F 0.7 °F 3.2 °F 67% 30.41 in 10.0 mi North 8.1 mph - N/A   Overcast
12:35 AM 12.2 °F -1.0 °F 1.4 °F 62% 30.41 in 10.0 mi NNE 10.4 mph - N/A   Overcast
1:15 AM 10.4 °F -2.4 °F 1.4 °F 67% 30.40 in 10.0 mi NNE 9.2 mph - N/A   Overcast
1:35 AM 8.6 °F -3.7 °F -0.4 °F 67% 30.40 in 10.0 mi NE 8.1 mph - N/A   Scattered Clouds
1:55 AM 6.8 °F -4.8 °F -2.2 °F 67% 30.39 in 10.0 mi NE 6.9 mph - N/A   Clear
2:35 AM 3.2 °F -7.8 °F -2.2 °F 78% 30.40 in 10.0 mi NE 5.8 mph - N/A   Clear
3:15 AM 6.8 °F -10.0 °F 1.4 °F 79% 30.39 in 10.0 mi NNE 13.8 mph 18.4 mph N/A   Clear
4:35 AM 3.2 °F -7.8 °F -5.8 °F 66% 30.39 in 10.0 mi NE 5.8 mph - N/A   Clear
4:55 AM 3.2 °F -9.1 °F -4.0 °F 72% 30.39 in 10.0 mi NE 6.9 mph - N/A   Clear
5:35 AM 1.4 °F - -5.8 °F 72% 30.40 in 10.0 mi Calm Calm - N/A   Clear
5:55 AM 1.4 °F -6.2 °F -5.8 °F 72% 30.39 in 10.0 mi NW 3.5 mph - N/A   Clear
6:15 AM 1.4 °F - -7.6 °F 66% 30.40 in 10.0 mi Calm Calm - N/A   Clear
6:55 AM 1.4 °F - -5.8 °F 72% 30.40 in 10.0 mi Calm Calm - N/A   Clear
7:15 AM -0.4 °F -10.4 °F -4.0 °F 85% 30.41 in 10.0 mi South 4.6 mph - N/A   Clear
7:35 AM -2.2 °F - -7.6 °F 78% 30.41 in 10.0 mi Calm Calm - N/A   Clear
7:55 AM 1.4 °F -8.3 °F -2.2 °F 85% 30.41 in 10.0 mi SW 4.6 mph - N/A   Clear
8:16 AM 3.2 °F -4.2 °F -0.4 °F 85% 30.42 in 10.0 mi SW 3.5 mph - N/A   Clear
8:55 AM 6.8 °F -0.1 °F -2.2 °F 67% 30.43 in 10.0 mi South 3.5 mph - N/A   Clear
9:55 AM 10.4 °F 4.0 °F -0.4 °F 62% 30.42 in 10.0 mi SE 3.5 mph - N/A   Clear
10:35 AM 12.2 °F - 1.4 °F 62% 30.42 in 10.0 mi Calm Calm - N/A   Clear
11:15 AM 10.4 °F -1.5 °F -0.4 °F 62% 30.40 in 10.0 mi South 8.1 mph - N/A   Clear
11:35 AM 10.4 °F 0.8 °F -0.4 °F 62% 30.39 in 10.0 mi South 5.8 mph - N/A   Clear
11:55 AM 8.6 °F -1.3 °F -0.4 °F 67% 30.37 in 10.0 mi South 5.8 mph - N/A   Clear
12:15 PM 10.4 °F -0.4 °F 1.4 °F 67% 30.36 in 10.0 mi SSE 6.9 mph - N/A   Clear
12:35 PM 10.4 °F -0.4 °F 1.4 °F 67% 30.35 in 10.0 mi SSE 6.9 mph - N/A   Clear
1:55 PM 10.4 °F 2.2 °F 1.4 °F 67% 30.30 in 10.0 mi South 4.6 mph - N/A   Clear
2:15 PM 10.4 °F 2.2 °F 1.4 °F 67% 30.30 in 10.0 mi SSE 4.6 mph - N/A   Clear
2:35 PM 10.4 °F 2.2 °F 1.4 °F 67% 30.30 in 10.0 mi South 4.6 mph - N/A   Clear
2:55 PM 10.4 °F 4.0 °F -0.4 °F 62% 30.29 in 10.0 mi South 3.5 mph - N/A   Clear
3:35 PM 10.4 °F 2.2 °F -0.4 °F 62% 30.29 in 10.0 mi SSE 4.6 mph - N/A   Clear
3:56 PM 8.6 °F -1.3 °F -0.4 °F 67% 30.29 in 10.0 mi South 5.8 mph - N/A   Clear
4:55 PM 3.2 °F -6.2 °F -4.0 °F 72% 30.29 in 10.0 mi South 4.6 mph - N/A   Clear
5:15 PM 3.2 °F -4.2 °F -2.2 °F 78% 30.29 in 10.0 mi South 3.5 mph - N/A   Clear
5:35 PM 3.2 °F -4.2 °F -2.2 °F 78% 30.29 in 10.0 mi SSW 3.5 mph - N/A   Clear
5:55 PM 3.2 °F -4.2 °F -5.8 °F 66% 30.29 in 10.0 mi SSW 3.5 mph - N/A   Clear
6:15 PM 3.2 °F -4.2 °F -2.2 °F 78% 30.29 in 10.0 mi SSW 3.5 mph - N/A   Clear
6:35 PM 3.2 °F -4.2 °F -2.2 °F 78% 30.30 in 10.0 mi SSW 3.5 mph - N/A   Clear
6:55 PM 3.2 °F -4.2 °F -2.2 °F 78% 30.30 in 10.0 mi SSW 3.5 mph - N/A   Clear
7:55 PM -0.4 °F - -2.2 °F 92% 30.30 in 10.0 mi Calm Calm - N/A   Clear
8:15 PM 1.4 °F - -2.2 °F 85% 30.29 in 10.0 mi Calm Calm - N/A   Clear
8:35 PM -2.2 °F - -9.4 °F 71% 30.29 in 10.0 mi Calm Calm - N/A   Clear
9:35 PM -5.8 °F - -7.6 °F 92% 30.27 in 10.0 mi Calm Calm - N/A   Clear
9:55 PM -5.8 °F - -9.4 °F 84% 30.26 in 3.0 mi Calm Calm - N/A   Clear
10:15 PM -5.8 °F - -9.4 °F 84% 30.26 in 10.0 mi Calm Calm - N/A   Clear
10:55 PM -5.8 °F - -11.2 °F 77% 30.25 in 10.0 mi Calm Calm - N/A   Clear
11:15 PM -5.8 °F - -9.4 °F 84% 30.24 in 10.0 mi Calm Calm - N/A   Clear
11:35 PM -5.8 °F - -9.4 °F 84% 30.23 in 10.0 mi Calm Calm - N/A   Clear
11:55 PM -5.8 °F - -11.2 °F 77% 30.23 in 10.0 mi Calm Calm - N/A   Clear